SCP
-0 -0 -0 -0 -0 -0 -0 -0 -0 -0 -0 -0 -0 -0 -0 0 0 0 0 0 0 0 0 0 0 0 0 0 0 0 0 0
-0 -0 -0 -0 -0 -0 -0 -0 -0 -0 -0 -0 -0 -0 0 0 0 0 0 0 0 0 0 0 0 0 0 0 0 0 0 0
-0 -0 -0 -0 -0 -0 -0 -0 -0 -0 -0 -0 -0 0 0 0 0 0 0 0 0 0 0 0 0 0 0 0 0 0 0 0
-0 -0 -0 -0 -0 -0 -0 -0 -0 -0 -0 0 0 0 0 0 0 0 0 0 0 0 0 0 0 0 0 0 0 0 0 0
-0 -0 -0 -0 -0 -0 -0 -0 -0 -0 0 0 0 0 0 0 0 0 0 0 0 0 0 0 0 0 0 0 0 0 0 0
-0 -0 -0 -0 -0 -0 -0 -0 -0 0 0 0 0 0 0 0 0 0 0 0 0 0 0 0 0 0 0 0 0 0 0 0
-0 -0 -0 -0 -0 -0 -0 -0 -0 0 0 0 0 0 0 0 0 0 1 0 0 0 0 0 0 0 0 0 0 0 0 0
-0 -0 0 0 0 -0 0 0 0 0 0 0 0 0 0 0 0 0 0 0 0 0 0 0 0 0 0 0 0 0 0 0
-0 -0 -0 -0 -0 -0 0 0 0 0 0 0 0 0 0 0 0 0 0 0 0 0 0 0 0 0 0 0 0 0 0 0
-0 -0 -0 -0 -0 0 -0 0 0 0 0 0 0 0 0 0 0 0 0 0 0 0 0 0 0 0 0 0 0 0 0 0
-0 -0 -0 -0 -0 -0 0 0 0 0 0 0 0 0 0 0 0 0 1 1 1 0 0 0 0 0 0 0 0 0 0 0
-0 -0 -0 -0 -0 -0 -0 -0 0 0 0 0 0 0 0 0 1 1 1 0 1 0 0 0 0 0 0 0 0 0 0 0
-0 -0 -0 -0 -0 -0 -0 -0 0 0 0 0 0 1 1 0 1 1 0 1 0 0 0 0 0 0 0 0 0 0 0 0
-0 -0 -0 -0 -0 -0 -0 -0 0 0 1 0 1 1 1 1 1 1 1 1 0 0 0 0 0 0 0 0 0 0 0 0
-0 -0 -0 0 -0 -0 0 0 0 1 1 1 1 1 2 1 0 1 0 0 0 0 0 0 0 0 0 0 0 0 0 0
0 0 0 0 1 1 1 1 1 1 1 1 1 2 1 1 0 0 0 0 0 0 0 0 0 0 0 0 0 0 0 0
1 1 1 1 2 2 1 2 2 2 1 1 1 1 1 0 0 0 0 0 0 0 0 0 0 0 0 0 0 0 0 0
0 1 1 1 2 2 2 2 3 3 3 2 1 1 0 0 0 0 0 0 0 0 0 0 0 0 0 0 0 0 0 0
1 1 1 1 2 2 1 2 2 2 2 1 1 1 0 0 0 0 0 0 0 0 0 0 0 0 0 0 0 0 0 0
Wind_Speed_500mb
35 36 37 37 34 31 29 25 22 18 16 13 11 9 8 9 9 7 9 12 14 14 13 12 11 11 12 14 16 18 22 25
33 34 35 36 33 31 27 24 21 18 15 12 10 10 10 11 9 10 13 14 14 15 14 15 15 17 20 22 25 28 33 36
33 32 34 37 33 30 27 22 21 18 14 13 12 12 12 11 12 13 15 16 17 18 18 19 21 24 26 28 32 37 40 43
32 31 32 39 36 31 27 23 21 17 16 15 15 15 14 14 15 17 19 20 21 22 22 23 25 28 32 36 41 45 48 50
32 31 26 32 33 31 28 26 23 21 21 20 19 17 17 17 16 18 20 24 26 26 27 27 30 34 38 43 47 48 49 56
30 31 26 28 28 28 25 25 26 25 23 22 20 19 18 14 17 17 23 28 29 29 29 31 35 40 43 46 43 50 56 36
30 30 29 27 27 25 23 27 24 21 21 19 18 19 15 13 17 21 34 35 33 32 32 35 39 38 35 26 35 47 46 51
28 28 28 29 27 24 22 20 15 19 17 20 21 20 17 16 18 17 21 26 20 21 22 28 30 31 28 37 38 42 47 46
29 29 28 28 30 29 22 23 21 19 20 19 18 23 22 18 18 18 19 18 20 15 22 22 25 31 47 53 60 42 42 41
28 29 29 28 30 29 31 23 23 22 22 19 21 22 20 18 21 19 19 17 22 20 22 25 33 56 58 61 39 41 41 42
30 31 30 30 32 31 32 29 24 24 22 21 22 20 27 21 23 19 21 17 27 21 25 47 52 55 60 38 35 40 43 42
32 31 33 32 34 33 31 31 29 22 21 22 21 26 27 23 35 25 25 28 20 28 51 51 50 47 32 35 40 42 44 42
37 38 35 33 33 35 33 30 25 24 23 23 23 24 24 21 25 26 20 19 32 44 48 48 39 30 34 37 42 43 44 45
44 39 39 38 36 35 35 30 28 27 27 24 25 23 26 21 23 21 20 23 39 43 44 40 25 29 36 39 40 44 45 42
46 45 40 39 39 39 32 33 28 27 26 25 24 20 32 24 23 27 23 37 38 40 28 24 36 32 35 38 42 44 41 43
47 48 49 44 43 40 37 32 30 31 26 26 21 38 36 26 20 24 16 33 37 20 26 35 28 32 35 34 38 40 40 38
48 46 46 46 46 44 34 33 30 29 27 23 24 33 22 19 24 24 30 25 18 22 23 26 30 33 32 29 33 36 35 34
43 43 41 44 43 45 36 31 32 29 28 25 23 17 18 22 23 26 19 22 25 25 21 30 26 28 29 30 26 30 39 32
36 34 33 33 38 39 37 33 32 32 27 22 21 18 26 20 16 15 18 22 30 28 27 22 21 26 24 29 27 26 29 35
Wind_Direction_500mb
162 164 176 174 171 172 172 174 174 174 176 182 188 186 189 198 202 208 209 192 193 196 207 223 241 267 287 305 313 314 317 318
164 172 182 176 176 178 180 180 183 185 189 200 210 208 211 220 222 231 215 211 213 221 234 253 270 284 295 301 304 308 310 311
166 172 187 181 186 187 186 187 193 196 206 217 224 227 230 237 245 240 228 227 233 241 252 268 283 294 299 303 305 307 309 309
171 177 183 187 189 192 195 196 202 207 218 227 232 238 244 249 253 247 241 242 248 256 265 275 285 293 299 303 305 306 306 306
173 177 178 179 191 197 203 204 208 215 223 229 237 246 250 258 261 257 257 256 260 264 272 281 290 298 302 306 309 310 312 312
177 179 181 182 192 190 201 220 216 221 228 235 242 248 256 264 280 287 267 264 266 271 277 287 294 299 305 311 322 322 321 327
180 182 184 184 191 189 194 220 239 227 236 240 238 254 262 245 230 221 250 267 271 273 283 295 299 306 321 326 305 311 310 302
184 186 187 184 187 190 192 213 215 210 224 230 226 228 242 229 254 259 257 304 312 311 318 308 315 320 288 303 302 301 302 303
182 187 188 190 189 187 201 204 209 210 224 223 242 234 217 239 242 233 238 246 269 267 276 292 292 282 300 299 304 304 302 299
175 181 183 189 189 196 189 207 205 214 228 225 229 238 219 236 239 240 241 241 243 258 280 278 285 300 305 307 300 295 297 297
168 176 180 187 203 196 203 200 210 212 219 223 233 237 252 231 238 236 246 247 253 270 284 291 298 306 309 306 298 298 298 300
182 180 185 188 208 203 214 217 215 217 220 228 230 234 240 243 247 230 234 246 267 272 297 296 302 314 310 299 298 302 300 300
192 194 195 198 210 217 211 221 214 219 222 226 230 237 246 239 234 251 252 258 264 288 294 302 311 302 299 300 302 301 301 301
197 200 202 204 207 218 220 217 223 222 223 227 229 231 242 222 243 250 253 265 286 295 305 311 299 297 302 303 305 302 298 297
205 204 207 211 209 217 220 221 222 222 226 222 227 225 231 244 247 268 253 274 296 305 314 283 281 300 305 307 303 300 307 297
205 208 206 209 219 208 212 218 217 220 222 220 215 221 244 252 261 270 258 293 306 318 279 292 303 307 306 308 305 309 308 313
205 208 210 209 213 217 213 214 217 221 222 216 214 247 242 239 245 276 282 297 284 288 292 291 295 303 303 308 307 311 320 318
207 209 212 215 211 223 202 207 202 198 196 201 211 227 222 240 269 285 277 276 278 300 302 279 298 296 301 306 307 305 311 308
207 209 209 209 209 221 206 200 200 196 201 215 216 207 240 262 263 256 274 286 296 292 301 300 296 284 305 303 309 307 299 299
Wind_Speed_850mb
35 36 37 37 34 31 29 25 22 18 16 13 11 9 8 9 9 7 9 12 14 14 13 12 11 11 12 14 16 18 22 25
33 34 35 36 33 31 27 24 21 18 15 12 10 10 10 11 9 10 13 14 14 15 14 15 15 17 20 22 25 28 33 36
33 32 34 37 33 30 27 22 21 18 14 13 12 12 12 11 12 13 15 16 17 18 18 19 21 24 26 28 32 37 40 43
32 31 32 39 36 31 27 23 21 17 16 15 15 15 14 14 15 17 19 20 21 22 22 23 25 28 32 36 41 45 48 50
32 31 26 32 33 31 28 26 23 21 21 20 19 17 17 17 16 18 20 24 26 26 27 27 30 34 38 43 47 48 49 56
30 31 26 28 28 28 25 25 26 25 23 22 20 19 18 14 17 17 23 28 29 29 29 31 35 40 43 46 43 50 56 36
30 30 29 27 27 25 23 27 24 21 21 19 18 19 15 13 17 21 34 35 33 32 32 35 39 38 35 26 35 47 46 51
28 28 28 29 27 24 22 20 15 19 17 20 21 20 17 16 18 17 21 26 20 21 22 28 30 31 28 37 38 42 47 46
29 29 28 28 30 29 22 23 21 19 20 19 18 23 22 18 18 18 19 18 20 15 22 22 25 31 47 53 60 42 42 41
28 29 29 28 30 29 31 23 23 22 22 19 21 22 20 18 21 19 19 17 22 20 22 25 33 56 58 61 39 41 41 42
30 31 30 30 32 31 32 29 24 24 22 21 22 20 27 21 23 19 21 17 27 21 25 47 52 55 60 38 35 40 43 42
32 31 33 32 34 33 31 31 29 22 21 22 21 26 27 23 35 25 25 28 20 28 51 51 50 47 32 35 40 42 44 42
37 38 35 33 33 35 33 30 25 24 23 23 23 24 24 21 25 26 20 19 32 44 48 48 39 30 34 37 42 43 44 45
44 39 39 38 36 35 35 30 28 27 27 24 25 23 26 21 23 21 20 23 39 43 44 40 25 29 36 39 40 44 45 42
46 45 40 39 39 39 32 33 28 27 26 25 24 20 32 24 23 27 23 37 38 40 28 24 36 32 35 38 42 44 41 43
47 48 49 44 43 40 37 32 30 31 26 26 21 38 36 26 20 24 16 33 37 20 26 35 28 32 35 34 38 40 40 38
48 46 46 46 46 44 34 33 30 29 27 23 24 33 22 19 24 24 30 25 18 22 23 26 30 33 32 29 33 36 35 34
43 43 41 44 43 45 36 31 32 29 28 25 23 17 18 22 23 26 19 22 25 25 21 30 26 28 29 30 26 30 39 32
36 34 33 33 38 39 37 33 32 32 27 22 21 18 26 20 16 15 18 22 30 28 27 22 21 26 24 29 27 26 29 35
Wind_Direction_850mb
162 164 176 174 171 172 172 174 174 174 176 182 188 186 189 198 202 208 209 192 193 196 207 223 241 267 287 305 313 314 317 318
164 172 182 176 176 178 180 180 183 185 189 200 210 208 211 220 222 231 215 211 213 221 234 253 270 284 295 301 304 308 310 311
166 172 187 181 186 187 186 187 193 196 206 217 224 227 230 237 245 240 228 227 233 241 252 268 283 294 299 303 305 307 309 309
171 177 183 187 189 192 195 196 202 207 218 227 232 238 244 249 253 247 241 242 248 256 265 275 285 293 299 303 305 306 306 306
173 177 178 179 191 197 203 204 208 215 223 229 237 246 250 258 261 257 257 256 260 264 272 281 290 298 302 306 309 310 312 312
177 179 181 182 192 190 201 220 216 221 228 235 242 248 256 264 280 287 267 264 266 271 277 287 294 299 305 311 322 322 321 327
180 182 184 184 191 189 194 220 239 227 236 240 238 254 262 245 230 221 250 267 271 273 283 295 299 306 321 326 305 311 310 302
184 186 187 184 187 190 192 213 215 210 224 230 226 228 242 229 254 259 257 304 312 311 318 308 315 320 288 303 302 301 302 303
182 187 188 190 189 187 201 204 209 210 224 223 242 234 217 239 242 233 238 246 269 267 276 292 292 282 300 299 304 304 302 299
175 181 183 189 189 196 189 207 205 214 228 225 229 238 219 236 239 240 241 241 243 258 280 278 285 300 305 307 300 295 297 297
168 176 180 187 203 196 203 200 210 212 219 223 233 237 252 231 238 236 246 247 253 270 284 291 298 306 309 306 298 298 298 300
182 180 185 188 208 203 214 217 215 217 220 228 230 234 240 243 247 230 234 246 267 272 297 296 302 314 310 299 298 302 300 300
192 194 195 198 210 217 211 221 214 219 222 226 230 237 246 239 234 251 252 258 264 288 294 302 311 302 299 300 302 301 301 301
197 200 202 204 207 218 220 217 223 222 223 227 229 231 242 222 243 250 253 265 286 295 305 311 299 297 302 303 305 302 298 297
205 204 207 211 209 217 220 221 222 222 226 222 227 225 231 244 247 268 253 274 296 305 314 283 281 300 305 307 303 300 307 297
205 208 206 209 219 208 212 218 217 220 222 220 215 221 244 252 261 270 258 293 306 318 279 292 303 307 306 308 305 309 308 313
205 208 210 209 213 217 213 214 217 221 222 216 214 247 242 239 245 276 282 297 284 288 292 291 295 303 303 308 307 311 320 318
207 209 212 215 211 223 202 207 202 198 196 201 211 227 222 240 269 285 277 276 278 300 302 279 298 296 301 306 307 305 311 308
207 209 209 209 209 221 206 200 200 196 201 215 216 207 240 262 263 256 274 286 296 292 301 300 296 284 305 303 309 307 299 299